Location: ??
(35.3149°N, 139.6204°E)
Time: 10:41:31
(UTC+00:00)

USA 215 - Pass Details

Date: 03 August 2024
Orbit: 1102 x 1105 km, 123.0° (Epoch: 04 September)

Event Time Altitude Azimuth Distance (km) Brightness Sun altitude
Exits shadow 13:16:28 33° 58° (ENE) 1,761 4.3 -33.1°
Maximum altitude 13:17:46 36° 34° (NE) 1,672 4.3 -33.2°
Drops below altitude 10° 13:23:36 10° 331° (NNW) 2,963 6.3 -33.8°
Sets 13:26:17 0° 323° (NW) 3,923 7.2 -34.0°
